TimeEST,TemperatureF,Dew PointF,Humidity,Sea Level PressureIn,VisibilityMPH,Wind Direction,Wind SpeedMPH,Gust SpeedMPH,PrecipitationIn,Events,Conditions,WindDirDegrees,DateUTC
12:56 AM,17.1,14.0,88,29.49,-9999.0,North,8.1,-,0.02,,Unknown,350,2012-12-30 05:56:00
1:56 AM,17.1,14.0,88,29.47,-9999.0,NNW,11.5,-,0.01,,Unknown,340,2012-12-30 06:56:00
2:56 AM,15.1,12.0,88,29.46,-9999.0,NNW,9.2,-,0.04,,Unknown,330,2012-12-30 07:56:00
3:56 AM,16.0,12.0,84,29.44,-9999.0,NNW,10.4,18.4,0.01,,Unknown,340,2012-12-30 08:56:00
4:56 AM,15.1,12.0,88,29.44,-9999.0,NNW,12.7,-,0.02,,Unknown,330,2012-12-30 09:56:00
5:56 AM,15.1,12.0,88,29.45,-9999.0,NNW,12.7,23.0,0.04,,Unknown,340,2012-12-30 10:56:00
6:56 AM,16.0,12.9,88,29.44,-9999.0,NW,18.4,31.1,0.03,,Unknown,320,2012-12-30 11:56:00
7:56 AM,15.1,12.0,88,29.45,-9999.0,NW,16.1,28.8,0.01,,Unknown,320,2012-12-30 12:56:00
8:56 AM,15.1,12.0,88,29.47,-9999.0,NW,19.6,28.8,0.01,,Unknown,320,2012-12-30 13:56:00
9:56 AM,16.0,12.9,88,29.48,-9999.0,NW,23.0,34.5,0.02,,Unknown,320,2012-12-30 14:56:00
10:56 AM,17.1,14.0,88,29.47,-9999.0,NW,16.1,36.8,0.02,,Unknown,320,2012-12-30 15:56:00
11:56 AM,17.1,12.0,81,29.47,-9999.0,NW,19.6,31.1,0.02,,Unknown,310,2012-12-30 16:56:00
12:56 PM,16.0,10.9,81,29.47,-9999.0,NW,18.4,35.7,0.01,,Unknown,320,2012-12-30 17:56:00
1:56 PM,12.9,8.1,81,29.49,-9999.0,NW,10.4,23.0,N/A,,Unknown,310,2012-12-30 18:56:00
2:56 PM,12.0,7.0,80,29.50,-9999.0,NW,10.4,26.5,N/A,,Unknown,310,2012-12-30 19:56:00
3:56 PM,10.0,5.0,80,29.53,-9999.0,NW,10.4,27.6,N/A,,Unknown,310,2012-12-30 20:56:00
4:56 PM,8.1,3.9,83,29.56,-9999.0,NW,17.3,36.8,N/A,,Unknown,310,2012-12-30 21:56:00
5:56 PM,7.0,1.9,80,29.60,-9999.0,NW,17.3,38.0,N/A,,Unknown,310,2012-12-30 22:56:00
6:56 PM,6.1,1.0,80,29.62,-9999.0,NW,18.4,40.3,N/A,,Unknown,310,2012-12-30 23:56:00
7:56 PM,5.0,-0.0,80,29.66,-9999.0,NW,18.4,32.2,N/A,,Unknown,310,2012-12-31 00:56:00
8:56 PM,5.0,-0.9,76,29.67,-9999.0,NW,18.4,36.8,N/A,,Unknown,310,2012-12-31 01:56:00
9:56 PM,3.9,-0.9,80,29.69,-9999.0,NW,12.7,33.4,N/A,,Unknown,310,2012-12-31 02:56:00
10:56 PM,3.9,-2.0,76,29.69,-9999.0,NW,17.3,33.4,N/A,,Unknown,310,2012-12-31 03:56:00
11:56 PM,3.0,-2.0,80,29.68,-9999.0,NW,19.6,36.8,N/A,,Unknown,310,2012-12-31 04:56:00